CAPE
0 0 0 0 0 6 4 7 12 208 502 301 878 800 698 568 389 663 734 429 404 318 267 339 285 190 14 53 41 34 10 15
0 0 0 0 0 0 1 5 12 31 125 411 373 689 648 306 301 370 433 284 262 329 279 183 216 46 36 37 37 33 12 0
0 0 0 0 0 0 0 2 11 5 5 22 269 273 371 495 288 286 377 407 320 276 343 249 152 22 29 40 28 15 3 0
0 0 0 0 0 0 0 0 6 9 2 3 9 203 134 440 402 247 279 265 292 273 321 216 84 0 0 44 13 6 1 1
0 0 0 0 0 0 0 0 0 10 7 7 4 87 74 66 278 218 127 125 204 162 170 135 0 0 0 0 1 10 10 23
0 0 0 0 0 0 0 0 0 1 6 12 6 5 139 57 24 28 87 113 125 150 57 0 0 0 0 0 0 9 3 8
0 0 0 0 0 0 0 0 0 0 11 10 12 9 5 154 102 71 50 48 116 117 38 1 0 0 0 0 0 0 0 0
0 0 0 0 0 0 0 0 0 0 8 8 9 8 10 6 136 102 64 85 89 110 51 13 0 0 0 0 0 0 0 0
0 0 0 0 0 0 0 0 0 0 0 8 9 7 11 5 37 198 98 78 85 125 49 19 0 0 0 0 0 0 0 0
0 0 0 0 0 0 0 0 0 0 0 5 3 6 13 6 9 150 170 117 139 122 60 24 6 0 0 0 0 0 0 0
0 0 0 0 0 0 0 0 0 0 0 0 2 4 11 10 10 43 124 130 129 104 57 47 13 2 0 0 0 0 0 0
0 0 0 0 0 0 0 0 0 0 0 0 0 3 5 14 10 4 64 63 55 68 35 2 9 2 2 0 0 0 0 0
0 0 0 0 0 0 0 0 0 0 0 0 0 3 4 9 8 11 3 11 117 52 20 3 53 12 0 0 0 0 0 0
0 0 0 0 0 0 0 0 0 0 0 0 0 0 14 12 13 16 7 3 53 28 40 31 50 12 7 1 2 2 0 0
0 0 0 0 0 0 0 0 0 0 0 0 0 0 1 6 4 14 11 7 5 64 89 59 46 27 12 0 10 8 0 0
0 0 0 0 0 0 0 0 0 0 0 0 0 0 0 0 1 5 11 18 6 4 91 73 36 53 10 0 0 0 0 1
0 0 0 0 0 0 0 0 0 0 0 0 0 0 0 0 0 2 9 11 7 5 2 79 110 29 85 9 0 0 0 0
0 0 0 0 0 0 0 0 0 0 0 0 0 0 0 0 0 0 1 9 18 6 4 11 117 97 75 46 23 4 2 0
0 0 0 0 0 0 0 0 0 0 0 0 0 0 0 0 0 0 0 4 14 7 7 2 57 67 79 76 25 13 0 0
0 0 0 0 0 0 0 0 0 0 0 0 0 0 0 0 0 0 0 0 6 7 6 5 2 98 95 77 39 4 2 1
CIN
0 0 0 0 0 0 0 0 -132 -74 -43 -62 -21 -22 -27 -31 -43 -31 -14 -13 -22 -20 -29 -12 -7 -16 -57 -80 -44 -65 -101 -99
0 0 0 0 0 0 0 0 0 -114 -93 -40 -49 -34 -26 -16 -38 -46 -45 -41 -32 -28 -36 -26 -16 -47 -117 -60 -65 -70 -84 0
0 0 0 0 0 0 0 0 0 0 0 -106 -51 -42 -45 -28 -59 -41 -45 -62 -74 -51 -24 -41 -30 -48 -65 -78 -83 -123 -99 0
0 0 0 0 0 0 0 0 0 0 0 0 -8 -42 -71 -37 -51 -52 -50 -58 -48 -45 -37 -53 -55 0 0 -64 -121 -122 -132 -44
0 0 0 0 0 0 0 0 0 0 0 0 0 -84 -78 -88 -56 -50 -63 -52 -49 -49 -42 -44 0 0 0 0 -63 -129 -106 -70
0 0 0 0 0 0 0 0 0 -1 0 0 0 0 -18 -55 -111 -94 -83 -54 -64 -63 -86 0 0 0 0 0 0 -138 -118 -93
0 0 0 0 0 0 0 0 0 0 0 0 0 0 0 -8 -34 -41 -54 -78 -42 -54 -80 -43 0 0 0 0 0 0 0 -19
0 0 0 0 0 0 0 0 0 0 -1 0 0 0 0 0 -19 -24 -33 -48 -41 -13 -39 -115 0 0 0 0 0 0 0 0
0 0 0 0 0 0 0 0 0 0 0 0 0 0 0 0 -80 -2 -11 -20 -7 -4 -33 -72 0 0 0 0 0 0 0 0
0 0 0 0 0 0 0 0 0 0 0 -1 0 0 0 0 0 -1 0 0 0 0 -7 -17 -63 -5 0 0 0 0 0 0
0 0 0 0 0 0 0 0 0 0 0 0 0 0 0 0 0 -25 -3 -1 0 -4 0 -3 -35 -51 0 0 0 0 0 0
0 0 0 0 0 0 0 0 0 0 0 0 -1 -1 0 0 0 0 -11 -2 -2 -2 -4 -28 -23 -47 -91 0 0 0 0 0
0 0 0 0 0 0 0 0 0 0 0 0 0 -1 0 0 0 0 0 -67 -1 -3 -23 -10 -17 -43 -5 0 0 0 0 0
0 0 0 0 0 0 0 0 0 0 0 0 0 0 0 0 0 0 0 0 -18 -1 -15 -23 -13 -19 -19 0 0 -1 0 0
0 0 0 0 0 0 0 0 0 0 0 0 0 0 0 0 0 0 0 0 0 -15 -3 -8 -21 -9 -21 0 0 0 0 0
0 0 0 0 0 0 0 0 0 0 0 0 0 0 0 0 0 0 0 0 0 -15 -16 -25 -31 -4 -23 0 0 0 0 0
0 0 0 0 0 0 0 0 0 0 0 0 0 0 0 0 0 0 0 0 0 0 0 -32 -29 -66 -38 -89 0 0 0 0
0 0 0 0 0 0 0 0 0 0 0 0 0 0 0 0 0 0 0 0 0 0 0 -9 -22 -46 -48 -75 -97 -61 -92 0
0 0 0 0 0 0 0 0 0 0 0 0 0 0 0 0 0 0 0 0 0 0 0 0 -60 -54 -62 -63 -138 -152 0 -79
0 0 0 0 0 0 0 0 0 0 0 0 0 0 0 0 0 0 0 0 0 0 0 0 0 -45 -61 -76 -116 -136 -156 -113
Wind_Speed
16 16 21 24 23 24 23 22 21 15 8 6 7 8 9 7 9 12 12 12 14 13 16 13 14 13 12 13 13 12 7 6
17 16 16 15 12 23 25 23 21 19 16 11 7 9 9 5 10 11 9 9 10 14 15 13 13 12 10 14 13 12 6 5
18 17 17 16 14 17 21 25 23 20 19 20 7 3 5 9 7 10 9 8 11 14 11 11 11 12 12 15 11 4 5 3
16 16 16 17 14 15 13 14 12 11 12 13 9 4 4 7 7 11 10 7 11 10 15 11 9 4 4 12 4 7 5 4
16 16 15 16 14 11 8 8 9 9 12 11 11 6 3 3 3 3 4 7 3 6 7 6 6 4 4 4 6 6 5 4
15 16 15 14 10 9 10 9 9 9 11 13 10 7 3 3 2 3 3 3 3 4 5 5 7 6 6 5 7 6 5 3
12 14 14 13 12 10 10 10 9 10 10 11 10 9 8 3 3 5 5 3 4 3 4 6 7 5 5 6 6 6 8 5
10 12 12 12 12 12 10 9 10 9 8 10 12 10 8 8 6 7 5 5 3 3 3 6 6 5 5 6 6 7 8 6
11 13 11 11 12 11 9 9 10 9 9 12 12 11 11 10 6 6 6 4 5 4 4 3 5 4 6 6 6 8 8 7
8 9 10 10 10 9 8 9 8 9 9 9 13 13 13 10 7 4 6 7 7 6 6 5 5 6 4 5 4 5 8 7
9 8 10 9 8 8 8 10 9 8 9 8 13 13 14 11 7 6 5 5 8 6 6 8 5 5 6 5 5 5 7 6
7 7 9 8 7 6 7 7 6 7 9 10 12 10 15 11 9 9 3 4 8 5 3 8 6 5 7 5 4 4 5 6
8 9 10 7 8 9 8 8 8 8 8 14 13 12 13 13 9 9 9 7 5 6 3 8 6 5 6 4 4 3 3 4
8 8 8 7 7 7 4 6 5 6 6 10 12 13 12 12 12 10 10 8 4 8 5 5 3 7 3 5 4 2 1 3
6 7 7 6 7 6 7 5 6 6 9 9 11 12 13 12 13 10 10 9 6 5 7 7 5 5 5 3 4 4 6 3
6 7 6 6 7 7 7 7 7 7 6 8 8 12 12 13 14 12 12 8 10 6 5 6 6 7 3 4 1 3 4 3
5 7 7 6 7 6 5 7 6 7 7 8 9 9 12 12 12 12 11 9 9 10 6 7 6 7 7 4 2 2 3 3
5 6 6 7 6 7 7 7 9 8 10 8 8 8 9 11 12 11 11 10 10 9 9 5 7 5 6 8 6 5 5 4
6 6 7 7 7 7 7 7 7 8 9 8 9 9 10 11 12 11 10 9 10 9 8 7 4 6 9 8 4 5 3 3
6 7 6 6 6 7 7 7 4 5 6 7 6 6 7 11 11 11 11 10 9 9 6 6 7 5 8 5 3 3 3 3
Wind_Direction
17 12 8 5 10 8 358 358 353 3 353 267 197 175 177 172 175 146 156 163 152 135 143 143 142 136 124 134 134 122 124 124
20 11 13 4 359 359 5 355 352 3 7 355 275 179 161 203 184 161 160 158 139 139 149 146 142 122 116 138 129 117 117 110
16 13 11 7 6 358 358 355 351 1 3 353 322 235 197 197 177 177 165 184 160 138 137 141 142 122 127 125 125 114 116 111
17 13 10 11 7 2 358 353 347 346 1 352 337 291 239 186 186 172 179 198 167 159 156 150 134 127 137 142 132 137 126 130
16 14 15 15 7 3 354 349 351 346 353 351 338 312 243 241 180 178 163 210 156 165 150 153 131 140 147 137 138 135 138 146
10 16 14 15 10 5 354 354 352 350 336 359 342 333 262 232 218 187 169 165 193 180 148 138 138 147 156 138 148 145 143 137
9 15 13 8 11 359 357 354 344 346 343 350 340 331 331 191 202 198 207 186 187 171 171 147 144 153 152 141 139 146 141 138
5 14 8 9 9 1 356 349 342 345 346 342 348 337 331 334 206 206 202 208 200 161 176 167 141 158 151 143 144 149 130 134
13 17 0 3 5 3 357 351 349 342 348 341 347 347 333 322 263 195 203 197 186 180 164 164 128 164 150 143 147 155 141 149
1 6 2 356 354 360 358 351 350 340 347 339 348 348 333 324 309 192 191 201 200 192 193 177 160 158 136 146 142 144 141 145
4 355 358 347 347 349 355 352 351 348 346 342 347 350 336 327 332 314 194 210 192 190 193 186 155 155 142 140 147 149 151 151
355 354 354 343 351 345 345 354 356 351 354 340 348 352 345 340 345 339 276 210 200 172 187 165 132 143 139 133 139 140 154 166
353 0 348 354 355 351 350 351 352 355 354 337 350 354 351 345 351 348 349 300 194 171 144 173 137 126 116 92 64 106 135 179
352 352 347 347 358 347 324 328 334 346 350 338 353 357 348 350 352 348 343 321 210 166 153 152 142 154 148 133 144 111 157 185
347 344 343 343 353 347 342 338 339 344 356 348 356 352 352 355 355 350 339 344 322 171 171 175 156 176 171 138 148 170 141 164
345 340 341 352 352 356 350 346 349 338 330 344 348 352 352 354 357 354 342 331 340 340 187 165 156 165 133 177 168 127 159 144
312 332 346 347 356 353 354 346 335 334 335 341 357 343 357 355 351 351 337 335 345 337 340 178 183 174 181 156 150 95 70 132
324 334 331 351 355 344 346 340 336 344 344 343 347 353 353 355 348 351 335 332 339 337 324 296 186 179 173 182 179 164 180 150
320 335 328 340 347 343 336 333 334 335 339 342 344 349 347 350 341 345 335 325 326 327 322 320 229 181 186 195 184 183 136 165
329 330 332 335 335 332 327 333 326 323 332 335 333 343 333 341 335 333 326 333 332 338 319 329 337 197 184 171 182 189 164 152